Location: Guadanolo
(41.9167°N, 12.9333°E)
Time: 05:50:52
(UTC+00:00)

Okean 1 Rocket - Pass Details

Date: 16 September 2019
Orbit: 608 x 633 km, 82.5° (Epoch: 21 October)

Event Time Altitude Azimuth Distance (km) Brightness Sun altitude
Rises 18:18:43 0° 176° (S) 2,851 6.3 -12.2°
Reaches altitude 10° 18:20:57 10° 173° (S) 1,952 5.4 -12.6°
Maximum altitude 18:25:11 57° 94° (E) 717 3.0 -13.3°
Drops below altitude 10° 18:29:27 10° 16° (NNE) 1,974 5.7 -14.1°
Sets 18:31:43 0° 13° (NNE) 2,886 6.6 -14.5°
